Miscellaneous Local Product
Issued by NWS North Platte, NE

Home | Current Version | Previous Version | Graphics & Text | Print | Product List | Glossary On
Versions: 1 2 3 4 5 6 7 8 9 10 11 12 13 14 15 16 17 18 19 20 21 22 23 24 25 26 27 28 29 30 31 32 33 34 35 36 37 38 39 40 41 42 43 44 45 46 47 48 49 50
671
AXUS43 KLBF 290710
MISLBF


WESTERN AND NORTH CENTRAL NEBRASKA HOURLY WEATHER ROUNDUP
NATIONAL WEATHER SERVICE NORTH PLATTE NE
200 AM CDT THU JUN 29 2017

NOTE: "FAIR" INDICATES FEW OR NO CLOUDS BELOW 12,000 FEET WITH NO
SIGNIFICANT WEATHER AND/OR OBSTRUCTIONS TO VISIBILITY.

NOTE: STATIONS NOT REPORTING VARIABLES SUCH AS SKY/WEATHER OR
PRESSURE ARE PROVIDED BY RAWS AND APRS NETWORKS AND ARE NOT UNDER
NATIONAL WEATHER SERVICE QUALITY CONTROL.

...OBSERVATIONS IN AND NEAR THE EASTERN PANHANDLE OF NEBRASKA...

CITY           SKY/WX    TMP DP  RH WIND       PRES   REMARKS
PINE RIDGE     PTCLDY    58  55  90 CALM      29.81F
CHADRON        CLEAR     57  53  86 NW5       29.82F
ALLIANCE       PTCLDY    65  50  58 SE10G22   29.83F
SIDNEY         LGT RAIN  61  53  75 N8        29.91F
CRESCENT LAKE    N/A     67  53  59 S9G17       N/A
$$

...OBSERVATIONS IN NORTHERN NEBRASKA AND FAR SOUTHERN SOUTH DAKOTA...

CITY           SKY/WX    TMP DP  RH WIND       PRES   REMARKS
WINNER         MOCLDY    69  54  58 S20G28    29.80F
VALENTINE      CLOUDY    63  54  72 E18G25    29.79F
THEDFORD       CLOUDY    67  55  64 N18G32    29.85R
AINSWORTH      LGT RAIN  60  59  96 N23G31    29.88F
O`NEILL        CLOUDY    65  60  83 NW3       29.79S
ORD            CLOUDY    70  55  59 S3        29.70F
BROKEN BOW     PTCLDY    64  56  75 NE5       29.74F
VALENTINE NWR    N/A     60  55  84 N24G35      N/A
HALSEY           N/A     70  48  44 NW3         N/A
BUTTE            N/A     70  49  46 N7          N/A
CHAMBERS         N/A     68  60  76 CALM        N/A
$$

...OBSERVATIONS IN SOUTHWEST NEBRASKA AND FAR NORTHEAST COLORADO...

CITY           SKY/WX    TMP DP  RH WIND       PRES   REMARKS
WRAY           FAIR      68  54  60 E8        29.79R
IMPERIAL       CLOUDY    67  50  54 E8        29.77F
OGALLALA       MOCLDY    67  56  67 N15G23    29.85R
NORTH PLATTE   CLOUDY    65  57  75 E7        29.72F
MCCOOK         LGT RAIN  77  53  43 NW33G46   29.77F
LEXINGTON      MOCLDY    73  53  50 NE12      29.73F
STAPLETON        N/A     65  55  69 CALM        N/A
GOTHENBURG       N/A     70  51  50 NE7         N/A
CALLAWAY         N/A     66  56  70 SE13        N/A
$$

...OBSERVATIONS IN CENTRAL LINCOLN COUNTY AREA...

CITY           SKY/WX    TMP DP  RH WIND       PRES   REMARKS
N.P. AIRPORT   CLOUDY    65  57  75 E7        29.72F
N.P. DOWNTOWN    N/A     69  54  58 CALM        N/A
N.P. SOUTHEAST   N/A     68  54  61 SE3         N/A
N.P. HILLCREST   N/A     69  55  60 SE9         N/A
$$

...SOME OBSERVATIONS FROM AROUND THE REGION...

CITY           SKY/WX    TMP DP  RH WIND       PRES   REMARKS
DENVER         MOCLDY    67  45  45 E7        29.92R
LIMON          CLOUDY    60  53  77 E9        29.88F
ASPEN          CLOUDY    55  27  34 SW9       30.06F
LARAMIE        CLOUDY    50  34  54 S6        30.03F
CASPER         CLOUDY    52  47  83 N5        29.97R
CHEYENNE       CLOUDY    63  38  39 NE7       29.95F
SCOTTSBLUFF    CLOUDY    64  52  64 E7        29.82F
GRAND ISLAND   CLOUDY    71  67  87 SE6       29.76S
OMAHA          PTCLDY    72  65  78 SE3       29.72R
SIOUX FALLS    PTCLDY    63  58  83 N3        29.75R
PIERRE         CLOUDY    60  43  53 E7        29.74F
RAPID CITY     CLEAR     57  49  74 NW9       29.81F
BISMARCK       CLOUDY    62  54  74 NE6       29.74F
KANSAS CITY    CLOUDY    79  68  69 E9        29.82R
HILL CITY      PTCLDY    75  64  68 SE5       29.73S
WICHITA        PTCLDY    77  67  71 S14       29.76S
DODGE CITY     CLEAR     75  65  70 S20       29.71F
OKLAHOMA CITY  PTCLDY    75  66  73 S14       29.81F
DALLAS         CLEAR     79  71  76 S12       29.84F
AMARILLO       CLEAR     75  59  57 S20G26    29.84S
$$




USA.gov is the U.S. government's official web portal to all federal, state and local government web resources and services.